This is the latest recevied weather packets stored in our database for station/object IT9ITI-10. If no packets are shown the sender has not sent any weather packets the latest 10 day(s).
| Time | Temp. | Humidity | Pressure | Rain* | Wind** | Luminosity | Snow |
|---|---|---|---|---|---|---|---|
| 1777904700 | 23.33° C | 45% | 938.6 hPa | - | - | - | - |
| 1777901100 | 23.33° C | 44% | 939 hPa | - | - | - | - |
| 1777897500 | 23.33° C | 44% | 939.4 hPa | - | - | - | - |
| 1777893901 | 23.89° C | 44% | 939.8 hPa | - | - | - | - |
| 1777890301 | 23.89° C | 45% | 940.3 hPa | - | - | - | - |
| 1777886701 | 23.89° C | 44% | 940.5 hPa | - | - | - | - |
| 1777883101 | 23.33° C | 45% | 940.6 hPa | - | - | - | - |
| 1777879500 | 23.89° C | 45% | 940.3 hPa | - | - | - | - |
| 1777876058 | 22.78° C | 47% | 940.4 hPa | - | - | - | - |
| 1777872458 | 22.78° C | 47% | 940.1 hPa | - | - | - | - |
| 1777868858 | 22.78° C | 46% | 939.5 hPa | - | - | - | - |
| 1777865258 | 22.78° C | 47% | 939.2 hPa | - | - | - | - |
| 1777861658 | 22.78° C | 47% | 939.5 hPa | - | - | - | - |
| 1777858058 | 22.78° C | 47% | 939.5 hPa | - | - | - | - |
| 1777854458 | 22.78° C | 47% | 939.5 hPa | - | - | - | - |
| 1777850942 | 22.78° C | 47% | 939.9 hPa | - | - | - | - |
| 1777850858 | 22.78° C | 47% | 939.9 hPa | - | - | - | - |
| 1777847258 | 22.78° C | 47% | 940.3 hPa | - | - | - | - |
| 1777843658 | 23.33° C | 47% | 940.1 hPa | - | - | - | - |
| 1777840058 | 23.33° C | 47% | 939.8 hPa | - | - | - | - |
| 1777836458 | 23.33° C | 47% | 939.8 hPa | - | - | - | - |
| 1777832858 | 23.33° C | 47% | 939.1 hPa | - | - | - | - |
| 1777829257 | 23.33° C | 46% | 938.8 hPa | - | - | - | - |
| 1777825657 | 25° C | 45% | 938.7 hPa | - | - | - | - |
| 1777825041 | 23.89° C | 46% | 938.5 hPa | - | - | - | - |
* Rain since midnight (hover to see other rain measurements)
** Current wind speed in m/s (hover to see current wind gust speed)